Startpagina
METAR-TAF:

METAR-TAF

Vliegvelden :

Vliegbasis Deelen

Arnhem, Nederland

breedte: 52-04N, lengte: 005-53E, hoogte: 48 m

Actueel weer

Dit bericht is 32 minuten geleden gemaakt, om 07:25 UTC
Wind 8 kt uit het zuiden, variërend tussen het zuidoosten en het zuidwesten
Temperatuur 12°C
Vochtigheid 94%
Druk 1008 hPa
Zicht 10 km of meer

METAR: EHDL 160725Z AUTO 18008KT 130V230 9999 NCD 12/11 Q1008 BLU

Tijdstip: 09:57 (07:57 UTC)


TAF: ontbreekt

Waarnemingen en weersverwachtingen van meer dan 4000 vliegvelden (METAR en TAF).

De beschikbare stations zijn de gele en rode punten op de kaart.

Ga met uw muis naar het station om de naam te zien.

Klik dan om waarnemingen en weersverwachtingen te zien.

kaart wijzigen: klik op de groene knoppen met een zwart kruis om in te zoomen, op de groene knop met een streepje om uit te zoomen of op de groene pijlen voor aangrenzende kaarten.


METAR-TAF: